Zurück zum Katalog

STARLINK-32495

AktivKommunikationVLEO
NORAD 62052·PAYLOAD·🇺🇸 United States

Gestartet Nov 21, 2024 von Cape Canaveral Space Force Station

Loading…

Nächste Überflüge (nächste 24 Stunden)

TLE

AktuellSource: CelesTrak SupGP

Epoche: Sep 15, 2026, 02:21 UTC

1 62052C 24216W   26258.09840278 -.00000251  00000+0 -91035-5 0  2581
2 62052  43.0006 273.3592 0001191 266.7966 162.5338 15.27585271    17

Verfolge STARLINK-32495 in Echtzeit mit AllMySat

Download on the App Store